CW5456 Weather Reports


Display with metric or nautical units.
time (UTC)temp
F
wind
direction
speed
MPH
gust
MPH
rain 1hr
in
rain 24hr
in
rain mn
in
humidity
%
barometer
mb
20180814135034 56 274 0.0 3.0 0.00 0.00 0.00 94 1013.0
20180814134507 56 274 1.0 4.0 0.00 0.00 0.00 94 1012.9
20180814134033 56 274 3.0 4.0 0.00 0.00 0.00 94 1012.9
20180814133503 56 276 0.0 1.0 0.00 0.00 0.00 94 1012.9
20180814133033 56 276 0.0 3.0 0.00 0.00 0.00 94 1012.9
20180814132533 56 276 1.0 3.0 0.00 0.00 0.00 94 1012.9
20180814132033 56 276 0.0 2.0 0.00 0.00 0.00 94 1012.9
20180814131533 56 276 0.0 2.0 0.00 0.00 0.00 93 1012.8
20180814131033 56 276 1.0 2.0 0.00 0.00 0.00 93 1012.8
20180814130532 56 276 0.0 1.0 0.00 0.00 0.00 93 1012.8
20180814130035 56 276 0.0 1.0 0.00 0.00 0.00 92 1012.8
20180814125532 57 276 0.0 1.0 0.00 0.00 0.00 93 1012.9
20180814125031 57 276 0.0 0.0 0.00 0.00 0.00 92 1012.8
20180814124531 57 276 0.0 1.0 0.00 0.00 0.00 92 1012.9
20180814124031 57 276 0.0 3.0 0.00 0.00 0.00 92 1012.8
20180814123531 57 276 0.0 3.0 0.00 0.00 0.00 93 1012.9
20180814123031 57 276 0.0 3.0 0.00 0.00 0.00 93 1012.8
20180814122531 57 276 1.0 4.0 0.00 0.00 0.00 93 1012.9
20180814122030 58 276 2.0 4.0 0.00 0.00 0.00 93 1012.9
20180814121531 58 275 2.0 4.0 0.00 0.00 0.00 95 1012.9
20180814121033 57 276 4.0 4.0 0.00 0.00 0.00 95 1012.9
20180814120534 57 276 3.0 4.0 0.00 0.00 0.00 94 1012.8
20180814120029 57 276 2.0 4.0 0.00 0.00 0.00 94 1012.8
20180814115530 57 278 0.0 2.0 0.00 0.00 0.00 94 1012.9
20180814115029 57 279 2.0 2.0 0.00 0.00 0.00 93 1012.9
20180814114529 56 278 0.0 1.0 0.00 0.00 0.00 93 1012.9
20180814114029 56 278 1.0 2.0 0.00 0.00 0.00 93 1013.0
20180814113529 56 278 0.0 3.0 0.00 0.00 0.00 93 1013.0
20180814113029 56 278 0.0 4.0 0.00 0.00 0.00 93 1013.0
20180814112529 56 279 0.0 4.0 0.00 0.00 0.00 93 1013.0
20180814112029 57 278 0.0 1.0 0.00 0.00 0.00 93 1013.0
20180814111539 57 278 0.0 5.0 0.00 0.00 0.00 93 1013.1
20180814111028 57 278 0.0 7.0 0.00 0.00 0.00 93 1013.1
20180814110528 57 271 3.0 7.0 0.00 0.00 0.00 93 1013.1
20180814110028 56 271 0.0 3.0 0.00 0.00 0.00 93 1013.1
20180814105527 56 271 0.0 3.0 0.00 0.00 0.00 93 1013.2
20180814105027 56 271 0.0 1.0 0.00 0.00 0.00 93 1013.1
20180814104527 56 271 0.0 1.0 0.00 0.00 0.00 92 1013.0
20180814104030 56 271 0.0 1.0 0.00 0.00 0.00 92 1013.1
20180814103526 56 271 0.0 6.0 0.00 0.00 0.00 92 1013.1
20180814103027 57 271 0.0 6.0 0.00 0.00 0.00 92 1013.2
20180814102526 57 253 0.0 4.0 0.00 0.00 0.00 92 1013.2
20180814102026 57 258 0.0 4.0 0.00 0.00 0.00 92 1013.2
20180814101526 57 257 0.0 4.0 0.00 0.00 0.00 92 1013.3
20180814101027 57 310 1.0 5.0 0.00 0.00 0.00 91 1013.2
20180814100525 57 310 0.0 6.0 0.00 0.00 0.00 92 1013.2
20180814100028 57 230 2.0 6.0 0.00 0.00 0.00 91 1013.2
20180814095525 57 231 0.0 4.0 0.00 0.00 0.00 91 1013.2
20180814095025 57 261 1.0 4.0 0.00 0.00 0.00 91 1013.2
20180814094524 57 242 2.0 4.0 0.00 0.00 0.00 91 1013.3
20180814094025 57 243 3.0 3.0 0.00 0.00 0.00 91 1013.3
20180814093525 58 243 0.0 2.0 0.00 0.00 0.00 90 1013.4
20180814093025 58 243 0.0 7.0 0.00 0.00 0.00 90 1013.3
20180814092524 58 243 0.0 8.0 0.00 0.00 0.00 90 1013.4
20180814092024 58 276 7.0 8.0 0.00 0.00 0.00 91 1013.4
20180814091524 58 247 7.0 7.0 0.00 0.00 0.00 90 1013.4
20180814091023 58 332 0.0 4.0 0.00 0.00 0.00 90 1013.4
20180814090523 58 260 1.0 6.0 0.00 0.00 0.00 90 1013.4
20180814090027 58 258 0.0 6.0 0.00 0.00 0.00 90 1013.4
20180814085526 59 258 0.0 6.0 0.00 0.00 0.00 89 1013.4
20180814085023 59 258 3.0 6.0 0.00 0.00 0.00 89 1013.4
20180814084522 59 258 2.0 6.0 0.00 0.00 0.00 89 1013.4
20180814084025 59 258 3.0 6.0 0.00 0.00 0.00 89 1013.5
20180814083522 59 272 2.0 5.0 0.00 0.00 0.00 88 1013.5
20180814083022 59 276 1.0 5.0 0.00 0.00 0.00 88 1013.5
20180814082522 59 277 2.0 7.0 0.00 0.00 0.00 88 1013.5
20180814082027 60 264 4.0 8.0 0.00 0.00 0.00 87 1013.5
20180814081522 60 277 7.0 8.0 0.00 0.00 0.00 88 1013.5
20180814081021 60 260 7.0 9.0 0.00 0.00 0.00 88 1013.5
20180814080521 59 299 5.0 9.0 0.00 0.00 0.00 88 1013.4
20180814080021 59 254 2.0 8.0 0.00 0.00 0.00 89 1013.4
20180814075524 59 262 4.0 7.0 0.00 0.00 0.00 89 1013.4
20180814075021 59 264 2.0 7.0 0.00 0.00 0.00 90 1013.4
20180814074520 58 288 1.0 7.0 0.00 0.00 0.00 90 1013.3
20180814074021 58 294 3.0 5.0 0.00 0.00 0.00 91 1013.3
20180814073520 58 283 1.0 4.0 0.00 0.00 0.00 91 1013.4
20180814073023 58 269 0.0 3.0 0.00 0.00 0.00 90 1013.4
20180814072520 58 269 1.0 2.0 0.00 0.00 0.00 90 1013.3
20180814072020 58 269 1.0 2.0 0.00 0.00 0.00 90 1013.3
20180814071523 58 269 1.0 1.0 0.00 0.00 0.00 89 1013.3
20180814071020 58 269 0.0 3.0 0.00 0.00 0.00 89 1013.3
20180814070519 59 269 0.0 3.0 0.00 0.00 0.00 88 1013.4
20180814070019 59 270 0.0 10.0 0.00 0.00 0.00 88 1013.4
20180814065519 59 262 1.0 10.0 0.00 0.00 0.00 88 1013.4
20180814065019 59 274 9.0 9.0 0.00 0.00 0.00 88 1013.4
20180814064522 59 347 0.0 6.0 0.00 0.00 0.00 88 1013.4
20180814064022 59 251 2.0 6.0 0.00 0.00 0.00 88 1013.5
20180814063519 60 239 1.0 7.0 0.00 0.00 0.00 87 1013.5
20180814063019 60 238 2.0 7.0 0.00 0.00 0.00 87 1013.5
20180814062518 60 281 3.0 4.0 0.00 0.00 0.00 87 1013.6
20180814062018 60 268 0.0 7.0 0.00 0.00 0.00 86 1013.6
20180814061518 61 271 2.0 7.0 0.00 0.00 0.00 87 1013.5
20180814061017 61 262 5.0 7.0 0.00 0.00 0.00 87 1013.5
20180814060521 61 263 3.0 7.0 0.00 0.00 0.00 87 1013.4
20180814060017 61 252 3.0 7.0 0.00 0.00 0.00 87 1013.5
20180814055520 61 274 2.0 7.0 0.00 0.00 0.00 87 1013.6
20180814055017 61 256 3.0 7.0 0.00 0.00 0.00 87 1013.6
20180814054517 61 247 2.0 7.0 0.00 0.00 0.00 87 1013.6
20180814054016 60 275 4.0 6.0 0.00 0.00 0.00 87 1013.6
20180814053516 60 258 4.0 6.0 0.00 0.00 0.00 87 1013.6
20180814053016 60 273 3.0 5.0 0.00 0.00 0.00 86 1013.6
20180814052516 60 299 3.0 4.0 0.00 0.00 0.00 87 1013.6
20180814052016 60 295 0.0 3.0 0.00 0.00 0.00 86 1013.5
20180814051516 61 245 0.0 1.0 0.00 0.00 0.00 86 1013.4
20180814051045 61 245 0.0 1.0 0.00 0.00 0.00 86 1013.4
20180814050515 61 245 1.0 1.0 0.00 0.00 0.00 85 1013.5
20180814050015 62 245 0.0 3.0 0.00 0.00 0.00 84 1013.5
20180814045515 63 245 0.0 4.0 0.00 0.00 0.00 83 1013.6
20180814045014 64 245 3.0 6.0 0.00 0.00 0.00 81 1013.6
20180814044514 64 245 4.0 7.0 0.00 0.00 0.00 81 1013.7
20180814044014 64 285 4.0 7.0 0.00 0.00 0.00 81 1013.7
20180814043514 64 268 4.0 6.0 0.00 0.00 0.00 80 1013.7
20180814043017 64 332 4.0 5.0 0.00 0.00 0.00 80 1013.6
20180814042514 64 332 3.0 6.0 0.00 0.00 0.00 81 1013.7
20180814042017 64 343 3.0 6.0 0.00 0.00 0.00 82 1013.6
20180814041513 63 12 4.0 5.0 0.00 0.00 0.00 83 1013.6
20180814041014 63 0 1.0 3.0 0.00 0.00 0.00 83 1013.7
20180814040513 63 0 2.0 4.0 0.00 0.00 0.00 83 1013.7
20180814040014 63 0 3.0 5.0 0.00 0.00 0.00 84 1013.7
20180814035516 62 359 2.0 5.0 0.00 0.00 0.00 84 1013.7
20180814035012 62 18 3.0 5.0 0.00 0.00 0.00 84 1013.7
20180814034513 62 2 3.0 5.0 0.00 0.00 0.00 84 1013.7
20180814034012 62 345 0.0 7.0 0.00 0.00 0.00 84 1013.7
20180814033512 62 345 4.0 8.0 0.00 0.00 0.00 84 1013.7
20180814033012 62 337 5.0 8.0 0.00 0.00 0.00 84 1013.6
20180814032512 62 347 5.0 7.0 0.00 0.00 0.00 85 1013.6
20180814032012 62 1 4.0 7.0 0.00 0.00 0.00 85 1013.7
20180814031512 62 350 5.0 7.0 0.00 0.00 0.00 85 1013.7
20180814031011 62 357 2.0 4.0 0.00 0.00 0.00 85 1013.6
20180814030511 62 345 0.0 5.0 0.00 0.00 0.00 84 1013.6
20180814030011 62 345 2.0 9.0 0.00 0.00 0.00 84 1013.5
20180814025511 63 337 5.0 9.0 0.00 0.00 0.00 83 1013.5
20180814025013 63 332 4.0 10.0 0.00 0.00 0.00 83 1013.5
20180814024513 63 274 5.0 10.0 0.00 0.00 0.00 83 1013.5
20180814024010 63 337 9.0 10.0 0.00 0.00 0.00 84 1013.6
20180814023510 63 352 5.0 10.0 0.00 0.00 0.00 84 1013.6
20180814023010 62 297 6.0 10.0 0.00 0.00 0.00 85 1013.5
20180814022510 62 353 8.0 10.0 0.00 0.00 0.00 86 1013.7
20180814022040 62 6 4.0 5.0 0.00 0.00 0.00 86 1013.7
20180814021510 62 346 3.0 5.0 0.00 0.00 0.00 86 1013.7
20180814021039 62 280 0.0 5.0 0.00 0.00 0.00 86 1013.7
20180814020543 62 201 0.0 6.0 0.00 0.00 0.00 86 1013.6
20180814020008 62 250 2.0 10.0 0.00 0.00 0.00 85 1013.7
20180814015508 63 276 2.0 10.0 0.00 0.00 0.00 85 1013.8
20180814015008 62 217 8.0 9.0 0.00 0.00 0.00 87 1013.8
20180814014511 62 212 1.0 6.0 0.00 0.00 0.00 86 1013.7
20180814014008 62 253 0.0 6.0 0.00 0.00 0.00 86 1013.8
20180814013508 62 238 0.0 3.0 0.00 0.00 0.00 86 1013.8
20180814013011 62 238 1.0 5.0 0.00 0.00 0.00 86 1013.9
20180814012537 62 238 0.0 6.0 0.00 0.00 0.00 86 1013.8
20180814012008 62 289 4.0 8.0 0.00 0.00 0.00 86 1014.0
20180814011508 63 293 6.0 9.0 0.00 0.00 0.00 86 1013.9
20180814011007 63 249 6.0 11.0 0.00 0.00 0.00 86 1014.0
20180814010507 63 250 6.0 13.0 0.00 0.00 0.00 85 1014.1
20180814010040 63 327 9.0 13.0 0.00 0.00 0.00 85 1014.0
20180814005537 63 332 9.0 14.0 0.00 0.00 0.00 85 1014.1
20180814005039 63 337 10.0 14.0 0.00 0.00 0.00 86 1014.1
20180814004536 63 332 10.0 13.0 0.00 0.00 0.00 86 1014.2
20180814004039 63 332 11.0 13.0 0.00 0.00 0.00 86 1014.2
20180814003506 63 332 5.0 10.0 0.00 0.00 0.00 86 1014.3
20180814003036 63 254 10.0 11.0 0.00 0.00 0.00 86 1014.3
20180814002506 63 234 8.0 13.0 0.00 0.00 0.00 86 1014.3
20180814002036 63 283 10.0 13.0 0.00 0.00 0.00 86 1014.3
20180814001536 63 280 7.0 9.0 0.00 0.00 0.00 86 1014.4
20180814001035 63 226 4.0 10.0 0.00 0.00 0.00 86 1014.5
20180814000508 63 245 6.0 10.0 0.00 0.00 0.00 86 1014.6
20180814000034 63 276 4.0 9.0 0.00 0.00 0.00 86 1014.7
20180813235504 63 274 1.0 9.0 0.00 0.00 0.00 85 1014.7
20180813235034 63 286 8.0 15.0 0.00 0.00 0.00 85 1014.7
20180813234533 64 301 5.0 15.0 0.00 0.00 0.00 84 1014.8
20180813234033 63 279 12.0 13.0 0.00 0.00 0.00 85 1014.8
20180813233534 63 226 7.0 10.0 0.00 0.00 0.00 86 1014.8
20180813233033 63 341 5.0 10.0 0.00 0.00 0.00 86 1015.0
20180813232533 63 231 4.0 7.0 0.00 0.00 0.00 86 1015.0
20180813232033 63 208 0.0 7.0 0.00 0.00 0.00 87 1015.1
20180813231533 62 260 3.0 8.0 0.00 0.00 0.00 88 1015.1
20180813231035 62 240 4.0 11.0 0.00 0.00 0.00 89 1015.1
20180813230532 62 264 8.0 15.0 0.00 0.00 0.00 88 1015.2
20180813230031 62 320 8.0 15.0 0.00 0.00 0.00 87 1015.3
20180813225531 62 332 12.0 15.0 0.00 0.00 0.00 87 1015.4
20180813225031 62 337 12.0 15.0 0.00 0.00 0.00 87 1015.5
20180813224530 62 337 11.0 14.0 0.00 0.00 0.00 88 1015.4
20180813224030 62 303 10.0 14.0 0.00 0.00 0.00 88 1015.4
20180813223530 62 287 11.0 14.0 0.00 0.00 0.00 88 1015.5
20180813223030 62 332 9.0 12.0 0.00 0.00 0.00 88 1015.6
20180813222531 62 332 10.0 12.0 0.00 0.00 0.00 88 1015.7
20180813222030 62 332 9.0 12.0 0.00 0.00 0.00 88 1015.7
20180813221530 62 332 9.0 12.0 0.00 0.00 0.00 89 1015.7
20180813221028 62 306 8.0 12.0 0.00 0.00 0.00 89 1015.8
20180813220528 62 327 5.0 10.0 0.00 0.00 0.00 89 1015.9
20180813220031 62 327 5.0 11.0 0.00 0.00 0.00 89 1016.0
20180813215528 62 305 8.0 11.0 0.00 0.00 0.00 89 1016.1
20180813215027 62 258 8.0 9.0 0.00 0.00 0.00 88 1016.2
20180813214527 62 271 8.0 9.0 0.00 0.00 0.00 88 1016.2
20180813214027 62 279 7.0 10.0 0.00 0.00 0.00 89 1016.2
20180813213527 62 241 6.0 10.0 0.00 0.00 0.00 89 1016.3
20180813213027 62 247 6.0 11.0 0.00 0.00 0.00 89 1016.3
20180813212528 62 289 9.0 11.0 0.00 0.00 0.00 89 1016.3
20180813212026 62 255 7.0 11.0 0.00 0.00 0.00 89 1016.5
20180813211527 62 278 11.0 11.0 0.00 0.00 0.00 89 1016.5
20180813211025 62 292 5.0 11.0 0.00 0.00 0.00 89 1016.5
20180813210527 61 272 7.0 12.0 0.00 0.00 0.00 90 1016.6
20180813210023 61 234 3.0 14.0 0.00 0.00 0.00 90 1016.7
20180813205526 61 327 8.0 14.0 0.00 0.00 0.00 89 1016.7
20180813205023 61 332 11.0 14.0 0.00 0.00 0.00 90 1016.7
20180813204523 60 337 12.0 14.0 0.00 0.00 0.00 90 1016.9
20180813204026 60 309 9.0 14.0 0.00 0.00 0.00 90 1016.9
20180813203522 61 296 8.0 17.0 0.00 0.00 0.00 90 1016.9
20180813203022 61 327 12.0 18.0 0.00 0.00 0.00 89 1016.9
20180813202526 61 327 15.0 19.0 0.00 0.00 0.00 89 1016.9
20180813202022 61 300 12.0 19.0 0.00 0.00 0.00 90 1017.0
20180813201521 61 327 17.0 18.0 0.00 0.00 0.00 90 1017.0
20180813201021 60 341 16.0 17.0 0.00 0.00 0.00 90 1017.0
20180813200523 60 337 15.0 17.0 0.00 0.00 0.00 90 1017.1
20180813200019 60 341 16.0 17.0 0.00 0.00 0.00 90 1017.0
20180813195519 61 341 14.0 18.0 0.00 0.00 0.00 90 1017.1
20180813195019 61 342 16.0 18.0 0.00 0.00 0.00 90 1017.0
20180813194519 60 344 14.0 17.0 0.00 0.00 0.00 90 1017.1
20180813194019 61 337 14.0 17.0 0.00 0.00 0.00 90 1017.0
20180813193519 61 337 15.0 17.0 0.00 0.00 0.00 90 1017.1
20180813193019 61 337 14.0 14.0 0.00 0.00 0.00 89 1017.2
20180813192519 61 343 11.0 13.0 0.00 0.00 0.00 89 1017.2
20180813192019 61 344 11.0 12.0 0.00 0.00 0.00 89 1017.2
20180813191521 61 337 9.0 9.0 0.00 0.00 0.00 89 1017.3
20180813191017 61 345 7.0 12.0 0.00 0.00 0.00 89 1017.3
20180813190518 61 348 9.0 12.0 0.00 0.00 0.00 89 1017.3
20180813190016 62 347 12.0 12.0 0.00 0.00 0.00 89 1017.3
20180813185516 61 349 11.0 13.0 0.00 0.00 0.00 89 1017.2
20180813185016 61 345 10.0 14.0 0.00 0.00 0.00 90 1017.3
20180813184515 61 347 10.0 14.0 0.00 0.00 0.00 89 1017.4
20180813184015 61 349 11.0 14.0 0.00 0.00 0.00 90 1017.5
20180813183515 61 341 12.0 14.0 0.00 0.00 0.00 89 1017.5
20180813183015 61 341 13.0 16.0 0.00 0.00 0.00 90 1017.6
20180813182515 61 337 13.0 16.0 0.00 0.00 0.00 90 1017.6
20180813182015 60 337 14.0 16.0 0.00 0.00 0.00 90 1017.7
20180813181514 60 332 13.0 17.0 0.00 0.00 0.00 90 1017.8
20180813181017 60 332 13.0 17.0 0.00 0.00 0.00 90 1017.8
20180813180513 60 327 14.0 17.0 0.00 0.00 0.00 90 1017.6
20180813180016 60 327 15.0 16.0 0.00 0.00 0.00 90 1017.7
20180813175513 60 337 13.0 17.0 0.00 0.00 0.00 90 1017.7
20180813175013 60 337 14.0 17.0 0.00 0.00 0.00 90 1017.6
20180813174513 60 337 16.0 17.0 0.00 0.00 0.00 90 1017.6
20180813174013 60 343 14.0 19.0 0.00 0.00 0.00 90 1017.7
20180813173512 60 332 15.0 19.0 0.00 0.00 0.00 90 1017.8
20180813173013 60 337 17.0 19.0 0.00 0.00 0.00 90 1017.7
20180813172512 60 332 14.0 18.0 0.00 0.00 0.00 90 1017.7
20180813172011 60 337 15.0 18.0 0.00 0.00 0.00 90 1017.7
20180813171511 60 341 16.0 18.0 0.00 0.00 0.00 90 1017.7
20180813171044 60 332 14.0 17.0 0.00 0.00 0.00 90 1017.6
20180813170542 60 343 10.0 15.0 0.00 0.00 0.00 91 1017.8
20180813170010 60 344 14.0 15.0 0.00 0.00 0.00 91 1017.7
20180813165510 60 343 12.0 15.0 0.00 0.00 0.00 91 1017.7
20180813165009 60 337 14.0 14.0 0.00 0.00 0.00 92 1017.8
20180813164509 59 344 11.0 13.0 0.00 0.00 0.00 92 1017.9
20180813164009 59 337 11.0 13.0 0.00 0.00 0.00 92 1017.9
20180813163509 58 337 11.0 12.0 0.00 0.00 0.00 92 1017.9
20180813163008 58 306 6.0 7.0 0.00 0.00 0.00 91 1017.9
20180813162512 58 296 3.0 7.0 0.00 0.00 0.00 91 1018.0
20180813162009 58 260 4.0 7.0 0.00 0.00 0.00 91 1018.0
20180813161508 58 275 4.0 7.0 0.00 0.00 0.00 91 1018.0
20180813161008 58 287 5.0 8.0 0.00 0.00 0.00 91 1018.2
20180813160511 58 252 6.0 11.0 0.00 0.00 0.00 91 1018.1
20180813160037 58 287 6.0 11.0 0.00 0.00 0.00 91 1018.2
20180813155507 58 327 8.0 11.0 0.00 0.00 0.00 91 1018.2
20180813155010 58 327 8.0 10.0 0.00 0.00 0.00 91 1018.2
20180813154507 58 284 5.0 9.0 0.00 0.00 0.00 90 1018.2
20180813154007 58 327 6.0 9.0 0.00 0.00 0.00 90 1018.3
20180813153506 58 252 6.0 10.0 0.00 0.00 0.00 90 1018.3
20180813153006 58 296 3.0 10.0 0.00 0.00 0.00 90 1018.3
20180813152537 57 224 7.0 12.0 0.00 0.00 0.00 90 1018.3
20180813152036 57 299 9.0 15.0 0.00 0.00 0.00 90 1018.4
20180813151509 57 257 10.0 15.0 0.00 0.00 0.00 89 1018.3
20180813151036 57 247 8.0 11.0 0.00 0.00 0.00 89 1018.2
20180813150536 57 300 5.0 11.0 0.00 0.00 0.00 90 1018.3
20180813150006 56 235 7.0 12.0 0.00 0.00 0.00 90 1018.3
20180813145508 56 310 4.0 12.0 0.00 0.00 0.00 90 1018.3
20180813145039 56 257 8.0 12.0 0.00 0.00 0.00 90 1018.3
20180813144508 56 296 9.0 13.0 0.00 0.00 0.00 90 1018.3
20180813144005 56 303 9.0 13.0 0.00 0.00 0.00 90 1018.2
20180813143538 56 273 11.0 13.0 0.00 0.00 0.00 91 1018.3
20180813143034 56 289 11.0 13.0 0.00 0.00 0.00 91 1018.2
20180813142505 56 272 11.0 12.0 0.00 0.00 0.00 91 1018.3
20180813142004 56 301 9.0 10.0 0.00 0.00 0.00 91 1018.3
20180813141504 56 327 6.0 10.0 0.00 0.00 0.00 91 1018.3
20180813141034 56 327 6.0 10.0 0.00 0.00 0.00 91 1018.3
20180813140537 56 283 8.0 10.0 0.00 0.00 0.00 91 1018.2
20180813140034 56 280 8.0 11.0 0.00 0.00 0.00 91 1018.3
20180813135504 56 291 8.0 12.0 0.00 0.00 0.00 91 1018.3